Home   Weather   Gummersbach   Past weeks

Flag for Germany Past Weather in Gummersbach, North Rhine-Westphalia, Germany — Yesterday and Last 2 Weeks

Now
28 °F

Low clouds.


Feels Like: 25 °F
Forecast: 24 / 31 °F
Wind: 3 mph from East

Location: Koeln / Bonn

Current Time: Jan 23, 2017 at 10:30:00 pm

Latest Report: Jan 23, 2017 at 9:50 pm


Visibility: N/A

Pressure: 30.33 "Hg

Humidity: 86%

Dew Point: 25 °F

Location of GummersbachLocation

Past Weather in Gummersbach — Graph

°F

Gummersbach Temperature Yesterday

Maximum temperature yesterday: 36 °F (at 1:50 pm)
Minimum temperature yesterday: 16 °F (at 7:50 am)
Average temperature yesterday: 26 °F

High & Low Weather Summary for the Past Weeks

 TemperatureHumidityPressure
High46 °F (Jan 11, 4:20 pm)100% (Jan 8, 9:20 pm)30.69 "Hg (Jan 8, 9:20 pm)
Low12 °F (Jan 18, 7:20 am)42% (Jan 20, 1:20 pm)28.97 "Hg (Jan 13, 1:20 am)
Average31 °F85%30.18 "Hg
* Reported Jan 8 9:20 pm — Jan 23 9:20 pm, Gummersbach, Weather by CustomWeather, © 2017

Note: Actual official high and low records may vary slightly from our data, if they occured in-between our weather recording intervals... More about our weather records

Advertising

Gummersbach Weather History for the Previous 24 Hours

Scroll right to see more
 ConditionsComfort  
Time TempWeatherWind HumidityBarometerVisibility
9:20 pm
Mon, Jan 23
28 °FLow clouds.5 mph86%30.33 "Hg6 mi
8:50 pm28 °FLow clouds.3 mph86%30.33 "Hg5 mi
8:20 pm28 °FLow clouds.5 mph93%30.33 "Hg4 mi
7:50 pm28 °FLow clouds.3 mph93%30.33 "Hg4 mi
7:20 pm28 °FLow clouds.3 mph93%30.33 "Hg4 mi
6:50 pm28 °FIce fog.3 mph93%30.33 "Hg3 mi
6:20 pm28 °FIce fog.3 mph93%30.33 "Hg3 mi
5:50 pm28 °FIce fog.3 mph93%30.33 "Hg3 mi
5:20 pm28 °FIce fog.5 mph93%30.33 "Hg3 mi
4:50 pm30 °FLow clouds.5 mph86%30.33 "Hg4 mi
4:20 pm30 °FLow clouds.3 mph86%30.33 "Hg4 mi
3:50 pm28 °FLow clouds.7 mph93%30.33 "Hg4 mi
3:20 pm28 °FLow clouds.5 mph93%30.33 "Hg4 mi
2:50 pm28 °FLow clouds.3 mph93%30.33 "Hg4 mi
2:20 pm28 °FLow clouds.5 mph93%30.33 "Hg4 mi
1:50 pm28 °FIce fog.3 mph93%30.33 "Hg3 mi
1:20 pm27 °FIce fog.2 mph100%30.33 "Hg1 mi
12:50 pm27 °FIce fog.2 mph93%30.33 "Hg1 mi
12:20 pm27 °FIce fog.2 mph93%30.33 "Hg1 mi
11:50 am25 °FSnow flurries. Ice fog.5 mph100%30.36 "Hg1 mi
11:20 am25 °FSnow flurries. Ice fog.3 mph93%30.36 "Hg1 mi
10:50 am25 °FIce fog.2 mph93%30.33 "Hg1 mi
10:20 am23 °FIce fog.2 mph93%30.36 "Hg1 mi
9:50 am23 °FIce fog.2 mph93%30.33 "Hg2 mi
9:20 am23 °FIce fog.3 mph93%30.33 "Hg3 mi
8:50 am21 °FIce fog.1 mph93%30.33 "Hg3 mi
8:20 am21 °FLow clouds.1 mph93%30.33 "Hg4 mi
7:50 am19 °FLow clouds.2 mph93%30.33 "Hg4 mi
7:20 am21 °FLow clouds.2 mph86%30.33 "Hg4 mi
6:50 am19 °FLow clouds.2 mph93%30.33 "Hg4 mi
6:20 am18 °FPassing clouds.3 mph93%30.30 "Hg4 mi
5:50 am16 °FPassing clouds.3 mph86%30.30 "Hg4 mi
5:20 am14 °FPassing clouds.1 mph92%30.30 "Hg4 mi
4:50 am14 °FPassing clouds.1 mph92%30.30 "Hg4 mi
4:20 am16 °FClear.1 mph93%30.30 "Hg4 mi
3:50 am16 °FClear.2 mph93%30.30 "Hg4 mi
3:20 am16 °FClear.5 mph93%30.30 "Hg4 mi
2:50 am16 °FClear.3 mph93%30.33 "Hg5 mi
2:20 am18 °FClear.2 mph93%30.33 "Hg5 mi
1:50 am18 °FClear.1 mph93%30.30 "Hg5 mi
1:20 am16 °FClear.1 mph93%30.30 "Hg5 mi
12:50 am18 °FClear.1 mph93%30.30 "Hg5 mi
12:20 am19 °FClear.2 mph93%30.30 "Hg5 mi
11:50 pm
Sun, Jan 22
19 °FClear.1 mph93%30.30 "Hg6 mi
11:20 pm21 °FClear.3 mph86%30.30 "Hg10 mi
10:50 pm19 °FClear.2 mph93%30.30 "Hg10 mi
10:20 pm19 °FClear.No wind93%30.30 "Hg10 mi
Weather by CustomWeather, © 2017

See weather overviewHow to use our weather pages